Regional Weather Roundup
Issued by NWS

Home | Current Version | Previous Version | Text Only | Print | Product List | Glossary On
Versions: 1 2 3 4 5 6 7 8 9 10 11 12 13 14 15 16 17 18 19 20 21 22 23 24 25 26 27 28 29 30 31 32 33 34 35 36 37 38 39 40 41 42 43 44 45 46 47 48 49 50
000
ASUS42 KKEY 291010
RWRKEY

FLORIDA REGIONAL WEATHER ROUNDUP FOR THE FLORIDA KEYS
NATIONAL WEATHER SERVICE KEY WEST FLORIDA
600 AM EDT SUN MAR 29 2015

...SOUTH FLORIDA AND THE KEYS...

CITY           SKY/WX    TMP DP  RH WIND       PRES   REMARKS
FORT MYERS     CLEAR     54  45  71 NE5       30.23R
SW REGIONAL AP CLEAR     53  44  71 N3        30.24R
NAPLES         CLEAR     56  46  69 N6        30.23R
MIAMI          CLOUDY    59  46  62 N7        30.21R
WEST KENDALL   CLOUDY    57  47  69 N8        30.21R
HOMESTEAD      MOCLDY    57  47  69 N8        30.19S
MARATHON       PTCLDY    64  50  60 N10       30.19R
BOCA CHICA NAS MOCLDY    68  52  56 NE10      30.19R
KEY WEST INTL  PTCLDY    67  54  63 NE8       30.19R

...INTERNATIONAL WEATHER...

CITY           SKY/WX    TMP DP  RH WIND       PRES   REMARKS
NASSAU BAHAMAS CLOUDY    70  55  60 N12       30.17S
CANCUN MEXICO  MOCLDY    75  64  69 N6        30.12R
COZUMEL MEXICO CLOUDY    72  66  83 CALM      30.10S

ADJACENT COASTAL WATERS...

STATION/POSITION TIME  SKY/WX   TEMP    WIND        PRES    WAVE
                                AIR SEA DIR/SP/G            HT/PER
                 (UTC)          (F)     (DEG/KT/KT) (MB)    (FT/S)
PULASKI SHOAL LI 0900            68      30/ 15/ 16 1022.1F
SAND KEY         0950            69      20/ 16/ 21 1022.0R
SOMBRERO KEY     1000            66      30/ 15/ 16 1022.8R
LONG KEY         0900            63 74   10/ 17/ 18 1022.6F
MOLASSES REEF    1000            63 76   10/ 16/ 17 1022.1R
FOWEY ROCKS      NOT AVBL

$$


USA.gov is the U.S. government's official web portal to all federal, state and local government web resources and services.